SL-19 DEB, 23485

Orbit data source: Space-Track

SL-19 DEB, 23485 is space debris in LEO originally from a launch on Mon, 26 Dec 1994 UTC launched from the Tyuratam Missile And Space Complex (TTMTR). Debris objects in space refer to the collection of defunct objects orbiting the Earth. Examples of debris include non-operational satellites, rocket bodies, and fragments generated from explosions, collisions, or faulty payload assembly.

Loading next visibility...
Identifier
23485, 1994-085H
Orbit
LEO
Country
Flag of CISCIS
Related business
Manufacturer
Unknown
Mission
Spacecraft
Bus & Motor
Unknown
Mass
Unknown
Launch date (UTC)
1994-12-26 (31 years ago)
Launch vehicle
Unknown
Launch site
Tyuratam Missile And Space Complex (TTMTR)
Object type
Payload
Rocket body
Debris
Shape & HBR
Unknown shape, 0.1 m
Radar Cross Section
Small (<0.1 m²)

Expand to show TLE details & history
Last TLE update: 3 days ago

TLE from 3 days ago
0 SL-19 DEB
1 23485U 94085H   26060.14864459 -.00006916  00000-0 -18973+0 0  9994
2 23485  64.6437 351.6580 0147311 231.7596 126.9993 11.30288711285086
Epoch: 2026-03-01T03:34Z
TLE epoch observation values (Epoch: 2026-03-01T03:34:02.892Z)
Latitude
0.00004°
Longitude
139.1854°
Altitude
2,086.071 km
Speed
6.833 km/s
True Right ascension
23h 26m 37s
True Declination
0° 00' 00"
Sunlit
Object was in daylight at epoch
Visualization orbit readout
Latitude
Unknown
Longitude
Unknown
Altitude
Unknown
Speed
Unknown
Apparent Right ascension
Unknown
Apparent Declination
Unknown
Sunlit
N/A
Visualization observer readout
Local Sidereal Time
01:41:19
Azimuth
Unknown
Elevation
Unknown
Doppler factor
Unknown
Orbital elements
Apogee altitude
2,131.264 km
Perigee altitude
1,884.198 km
Semi-major axis
8,385.868 km
Eccentricity
0.01473
Inclination
64.6437°
RAAN
351.658°
Arg. of periapsis
231.7596°
True anomaly
128.33255°
Mean anomaly
126.9993°
Eccentric anomaly
127.66741°
Mean motion
2.82632 °/min
Orbital period
127.37 mins
BSTAR
-0.18973
Loading maneuver chart data...
Computing Atmospheric mass density...
Loading historical data...
Loading historical data...
Loading historical data...
Loading historical data...
Loading historical data...
Loading historical data...
Loading historical data...

Documentation

Showing up to 5 results
|